CZ-4C DEB, 43261

Orbit data source: Space-Track

CZ-4C DEB, 43261 is space debris in SSO originally from a launch on Sat, 31 Mar 2018 UTC launched from the Taiyaun Space Center, China (TSC). Debris objects in space refer to the collection of defunct objects orbiting the Earth. Examples of debris include non-operational satellites, rocket bodies, and fragments generated from explosions, collisions, or faulty payload assembly.

Loading next visibility...
Identifier
43261, 2018-031C
Orbit
SSO
Country
Flag of CNCN / PRC
Related business
Manufacturer
Unknown
Mission
Spacecraft
Bus & Motor
Unknown
Mass
Unknown
Launch date (UTC)
2018-03-31 (8 years ago)
Launch vehicle
Unknown
Launch site
Taiyaun Space Center, China (TSC)
Object type
Payload
Rocket body
Debris
Shape & HBR
Unknown shape, 3.0 m
Radar Cross Section
Large (>1 m²)

Expand to show TLE details & history
Last TLE update: 2 days ago

TLE from 2 days ago
0 CZ-4C DEB
1 43261U 18031C   26171.48407022  .00004537  00000-0  35601-3 0  9990
2 43261  97.7739 255.7356 0005709 265.8097  94.2474 15.01430816444901
Epoch: 2026-06-20T11:37Z
TLE epoch observation values (Epoch: 2026-06-20T11:37:03.667Z)
Latitude
-0.00005°
Longitude
172.77229°
Altitude
565.834 km
Speed
7.578 km/s
True Right ascension
17h 02m 56s
True Declination
0° 00' 00"
Sunlit
Object was in full shadow at epoch
Visualization orbit readout
Latitude
Unknown
Longitude
Unknown
Altitude
Unknown
Speed
Unknown
Apparent Right ascension
Unknown
Apparent Declination
Unknown
Sunlit
N/A
Visualization observer readout
Local Sidereal Time
21:37:44
Azimuth
Unknown
Elevation
Unknown
Doppler factor
Unknown
Orbital elements
Apogee altitude
563.451 km
Perigee altitude
555.529 km
Semi-major axis
6,937.627 km
Eccentricity
0.00057
Inclination
97.7739°
RAAN
255.7356°
Arg. of periapsis
265.8097°
True anomaly
94.31264°
Mean anomaly
94.2474°
Eccentric anomaly
94.28002°
Mean motion
3.75601 °/min
Orbital period
95.85 mins
BSTAR
0.00035601
Loading maneuver chart data...
Computing Atmospheric mass density...
Loading historical data...
Loading historical data...
Loading historical data...
Loading historical data...
Loading historical data...
Loading historical data...
Loading historical data...

Documentation

Showing up to 5 results
|